This is the latest recevied weather packets stored in our database for station/object KC8PTQ. If no packets are shown the sender has not sent any weather packets the latest 10 day(s).
| Time | Temp. | Humidity | Pressure | Rain* | Wind** | Luminosity | Snow |
|---|---|---|---|---|---|---|---|
| 1778220478 | 8.33° C | 78% | 1014.6 hPa | 0 mm | - | 0 W/m² | - |
| 1778220176 | 8.33° C | 81% | 1014.4 hPa | 0 mm | - | 0 W/m² | - |
| 1778219871 | 8.33° C | 81% | 1014.6 hPa | 0 mm | - | 0 W/m² | - |
| 1778219568 | 7.78° C | 84% | 1014.4 hPa | 0 mm | - | 0 W/m² | - |
| 1778219265 | 7.78° C | 86% | 1014.5 hPa | 0 mm | - | 0 W/m² | - |
| 1778218963 | 7.22° C | 88% | 1014.4 hPa | 0 mm | - | 0 W/m² | - |
| 1778218660 | 7.22° C | 89% | 1014.4 hPa | 0 mm | - | 0 W/m² | - |
| 1778218357 | 7.22° C | 89% | 1014.4 hPa | 0 mm | - | 0 W/m² | - |
| 1778218054 | 7.78° C | 88% | 1014.7 hPa | 0 mm | - | 0 W/m² | - |
| 1778217751 | 7.78° C | 87% | 1014.7 hPa | 0 mm | - | 0 W/m² | - |
| 1778217447 | 7.78° C | 86% | 1014.6 hPa | 0 mm | - | 0 W/m² | - |
| 1778217143 | 7.78° C | 84% | 1014.6 hPa | 0 mm | - | 0 W/m² | - |
| 1778216840 | 7.78° C | 84% | 1014.7 hPa | 0 mm | - | 0 W/m² | - |
| 1778216538 | 8.33° C | 80% | 1014.7 hPa | 0 mm | - | 0 W/m² | - |
| 1778216238 | 7.78° C | 79% | 1014.8 hPa | 0 mm | - | 0 W/m² | - |
| 1778215936 | 7.78° C | 77% | 1014.7 hPa | 0 mm | - | 0 W/m² | - |
| 1778215633 | 8.33° C | 78% | 1014.6 hPa | 0 mm | - | 0 W/m² | - |
| 1778215330 | 8.33° C | 79% | 1014.4 hPa | 0 mm | - | 0 W/m² | - |
| 1778215026 | 7.78° C | 78% | 1014.5 hPa | 0 mm | - | 0 W/m² | - |
| 1778214724 | 8.33° C | 79% | 1014.4 hPa | 0 mm | - | 0 W/m² | - |
| 1778214420 | 8.33° C | 79% | 1014.5 hPa | 0 mm | - | 0 W/m² | - |
| 1778214117 | 7.78° C | 74% | 1014.3 hPa | 0 mm | - | 0 W/m² | - |
| 1778213814 | 7.78° C | 75% | 1014.3 hPa | 0 mm | - | 0 W/m² | - |
| 1778213511 | 8.33° C | 80% | 1014.4 hPa | 0 mm | - | 0 W/m² | - |
| 1778213208 | 8.89° C | 78% | 1014.5 hPa | 0 mm | - | 0 W/m² | - |
* Rain latest hour (hover to see other rain measurements)
** Current wind speed in m/s (hover to see current wind gust speed)